Rbgn^[z[y[W
メイン
   新天体発見情報
     Comet C/2021 J1 (Maury-Attard)
投稿するにはまず登録を

フラット表示 前のトピック | 次のトピック
投稿者 スレッド
佐藤裕久
投稿日時: 2021-6-17 17:12
モデレータ
登録日: 2005-6-12
居住地: 日本
投稿: 2608
オンライン
Comet C/2021 J1 (Maury-Attard)

Alain Mauryの通報によると、Georges Attard (Mougins, フランス)と彼は、5月9日UT、チリ、
San Pedro de Atacamaで0.28-m f/2.2 Rowe-Ackermann Schmidtアストログラフ(W94)で彗星を
発見した。観測には、0.4-m f/3.8反射望遠鏡(W95)も使用された。
小惑星センターのPCCP webpageに公表後、 L. BuzziとL. Demetz (測定はA. AlettiとBuzz, 
5月12.1日UT、シーイング良し, 60秒露出17枚のスタック, Skygems Telescope Network 0.51-m
 f/6.7 アストログラフ, ナミビア, 中程度のに集光した4"のコマと広くp.a. 310°を中心に5"
の扇状の尾がある)らCCD位置観測者によって彗星状と観測された。

彗星機能の報告は次の通り:

OC   Date        Reporter           Coma    Tail    PA          Exposures
Y00  2021-05-11  C. Jacques        12"             270           15x35s
L81  2021-05-12  L. Demetz          4"       5"    310           17x60s
X02  2021-05-16  E. Guido           7"                           27x30s

発見位置は次のとおり、

     2020 UT             R.A. (2000) Decl.       Mag.
     July 21.56976    0 16 21.33   -21 24 02.8   22.2
          21.59203    0 16 20.39   -21 24 09.2   22.5
          21.60319    0 16 19.90   -21 24 12.2   22.1
     Aug. 13.50844   23 54 30.06   -23 23 35.2   21.4
          13.51914   23 54 29.28   -23 23 38.5   21.4
          13.54055   23 54 27.70   -23 23 45.7   21.1
          14.49818   23 53 17.41   -23 29 00.2   21.7
          14.50744   23 53 16.71   -23 29 03.3   21.8
          14.51671   23 53 16.02   -23 29 06.2   21.6
          14.52594   23 53 15.33   -23 29 09.4   21.4

MPCの楕円軌道要素、位置推算表は次のとおり、

Orbital elements:
    C/2021 J1 (Maury-Attard)                                                    
Epoch 2021 Mar. 7.0 TT = JDT 2459280.5                                          
T 2021 Feb. 19.45631 TT                                 Rudenko                 
q   1.7403767            (2000.0)            P               Q                  
n   0.00729229     Peri.  147.31134     +0.00084728     -0.05570554             
a  26.3366220      Node    88.31687     -0.98711322     -0.15981936             
e   0.9339180      Incl.   92.71459     +0.16002118     -0.98557327             
P 135                                                                           
From 72 observations 2021 May 9-June 1, mean residual 0".6.                     
                                                                                
    C/2021 J1 (Maury-Attard)                                                    
Epoch 2020 Dec. 17.0 TT = JDT 2459200.5                                         
T 2021 Feb. 19.45473 TT                                 Rudenko                 
q   1.7403827            (2000.0)            P               Q                  
n   0.00730104     Peri.  147.31011     +0.00084512     -0.05572451             
a  26.3155716      Node    88.31612     -0.98710985     -0.15983982             
e   0.9338649      Incl.   92.71540     +0.16004195     -0.98556888             
P 135                                                                           
From 72 observations 2021 May 9-June 1, mean residual 0".6.                     
                                                                                
Ephemeris:
Date    TT    R. A. (2000) Decl.     Delta      r    Elong.  Phase   m1
2021 05 03    20 09 45.7 -30 05 23   1.4530  1.9610   104.2    29.9  19.2
...
2021 05 18    19 55 35.9 -43 04 55   1.3288  2.0511   121.8    24.8  19.2
...
2021 05 26    19 38 29.1 -50 38 22   1.3036  2.1034   130.0    21.6  19.3
...
2021 06 01    19 18 53.3 -56 08 03   1.3074  2.1444   134.6    19.7  19.4
2021 06 02    19 14 55.5 -57 00 29   1.3100  2.1513   135.1    19.4  19.4
2021 06 03    19 10 44.5 -57 51 55   1.3132  2.1583   135.7    19.2  19.4
...
2021 06 09    18 40 40.0 -62 33 53   1.3440  2.2010   137.4    18.2  19.6
...
2021 06 17    17 47 04.0 -67 12 56   1.4147  2.2597   136.1    18.1  19.8
...
2021 07 02    15 51 16.5 -70 03 01   1.6229  2.3745   126.7    20.1  20.3

(MPEC 2021-K93、CBET 4969)

フラット表示 前のトピック | 次のトピック

題名 投稿者 日時
 » Comet C/2021 J1 (Maury-Attard) 佐藤裕久 2021-6-17 17:12

投稿するにはまず登録を
 
© 1999 Tsutomu Seki.